Wetbulb
74.12 74.92 76.28 76.59 76.44 76.37 75.85 75.92 75.49 75.55 75.64 75.80 75.78 75.70 75.58 75.55 75.56 75.46 75.52 75.16 74.57 73.31 73.19 73.61 74.37 74.71 74.66 74.43 74.31 73.89 73.11 72.37
73.34 74.48 75.68 76.41 76.27 76.27 76.18 75.90 75.60 75.35 75.42 75.74 75.87 75.80 75.87 75.71 75.60 75.43 75.22 74.64 74.20 73.93 73.55 73.65 74.08 74.66 74.53 74.16 73.79 72.97 72.08 71.03
73.02 74.51 74.92 75.96 75.99 75.92 76.12 75.87 75.42 75.02 75.02 75.34 75.66 75.94 75.84 75.68 75.38 75.38 74.94 74.56 74.09 73.96 74.00 74.00 74.49 74.55 74.07 73.58 73.24 72.30 71.36 70.73
73.67 73.90 73.79 74.38 75.26 75.87 75.68 75.46 75.28 75.01 74.94 75.01 74.93 75.10 75.20 75.15 75.10 74.93 74.79 74.47 74.18 73.76 73.74 73.79 73.98 73.95 73.55 73.13 72.62 71.83 71.14 70.34
73.01 73.24 73.27 73.72 74.29 74.07 74.28 75.81 75.53 75.12 75.15 74.99 75.17 74.94 74.87 74.82 74.72 74.87 73.91 74.06 74.15 73.64 73.39 73.22 73.16 72.94 72.40 71.85 71.31 70.69 70.42 69.97
71.62 71.47 72.66 73.02 73.20 73.29 73.35 74.65 75.34 75.44 75.46 75.21 75.17 75.09 73.93 73.15 73.27 73.50 73.50 73.23 74.24 73.98 73.36 72.99 72.62 71.83 71.36 70.82 70.77 70.84 70.61 66.63
69.87 70.78 71.92 72.35 72.87 72.60 73.51 73.11 73.23 73.79 74.36 73.93 73.89 73.62 72.74 72.11 72.02 72.75 73.09 73.79 73.35 74.12 73.75 73.04 72.64 72.03 71.51 68.27 66.58 67.36 67.01 67.35
69.63 70.47 71.53 71.92 72.83 73.11 73.05 73.19 73.39 73.19 73.68 73.23 73.11 72.80 72.46 72.03 72.05 72.66 71.58 72.01 72.18 72.33 71.84 70.75 70.32 69.66 68.91 67.74 67.15 65.87 64.59 63.88
69.32 69.67 70.95 71.60 72.33 72.59 72.76 73.52 72.90 72.48 73.04 72.45 73.12 72.60 71.83 70.95 70.52 70.92 70.87 70.43 70.28 70.43 70.29 69.61 68.44 68.41 67.90 67.69 67.14 66.08 65.07 63.74
68.92 69.66 70.07 71.31 71.73 72.07 72.25 73.00 72.14 72.00 72.45 72.40 72.47 72.60 72.32 70.86 70.09 70.26 70.26 70.20 69.65 69.51 69.10 68.42 67.61 67.11 66.74 66.42 66.28 65.66 65.10 64.43
69.25 69.75 70.20 70.56 71.40 71.86 71.64 72.15 72.00 71.77 72.48 72.01 72.44 72.21 71.90 71.10 70.18 69.52 69.70 69.58 69.01 68.92 69.00 68.41 67.41 66.17 65.42 65.11 64.48 64.59 64.35 64.14
61.07 68.65 69.23 69.80 70.48 70.77 70.76 71.49 71.31 71.67 72.07 72.04 71.59 71.95 71.91 71.97 70.60 70.28 69.22 68.93 69.29 68.73 68.31 67.67 67.18 66.48 64.87 64.07 63.60 63.91 63.55 63.59
57.65 61.18 67.38 70.08 69.34 69.66 69.43 70.60 70.38 70.20 69.95 70.49 71.09 71.56 71.95 72.25 72.04 70.78 69.89 69.58 69.67 68.57 67.61 66.91 66.66 65.64 64.48 64.04 63.91 63.47 63.88 64.48
56.87 64.69 65.56 67.67 68.15 68.45 67.93 68.71 70.29 69.72 68.85 69.15 69.77 69.68 69.89 71.06 72.10 71.65 70.76 70.34 69.43 67.83 66.73 66.81 66.16 65.69 65.47 63.45 63.03 63.80 63.59 63.98
61.85 65.38 66.09 67.00 67.30 67.34 66.58 67.20 68.38 70.04 71.31 70.77 69.23 68.55 68.82 68.75 69.43 70.18 70.50 69.82 68.80 67.54 66.80 66.31 65.80 65.51 65.24 65.18 63.36 63.90 63.79 64.17
64.15 64.77 65.88 66.40 66.51 65.97 64.93 64.31 64.44 64.79 67.81 69.50 70.83 71.20 71.10 70.02 68.78 67.97 67.77 68.40 68.19 67.90 67.50 67.01 66.71 65.42 64.48 63.87 64.35 64.70 63.98 63.88
63.34 64.69 64.14 65.62 65.15 66.51 64.43 62.48 63.33 63.59 64.28 65.29 65.77 66.45 65.39 65.61 67.29 68.83 67.90 67.41 67.56 67.58 67.09 66.89 66.06 65.68 65.66 64.39 63.70 62.71 60.61 62.41
60.34 61.25 62.01 62.67 63.33 62.41 61.30 59.65 57.91 57.56 56.69 56.38 58.35 60.55 62.10 63.96 64.99 65.87 65.51 67.00 67.25 67.06 67.06 67.50 66.98 65.74 65.27 64.70 65.10 63.63 59.29 58.40
57.63 58.12 59.58 59.14 59.13 59.41 59.20 57.11 55.82 53.86 53.25 55.34 56.88 59.22 60.34 62.54 63.42 64.13 64.23 64.82 65.09 66.60 66.68 66.91 68.01 67.16 66.16 64.78 64.71 65.01 64.97 64.07
MSLP
1008.77 1008.93 1009.34 1009.93 1010.22 1010.62 1010.90 1011.12 1011.50 1011.83 1012.13 1012.50 1012.85 1013.26 1013.70 1014.06 1014.38 1014.65 1014.87 1015.04 1015.17 1015.34 1015.56 1015.78 1016.02 1016.18 1016.32 1016.48 1016.60 1016.65 1016.76 1016.75
1008.92 1009.16 1009.45 1009.73 1010.02 1010.37 1010.70 1011.04 1011.41 1011.77 1012.11 1012.49 1012.92 1013.31 1013.65 1013.95 1014.39 1014.60 1014.78 1014.98 1015.15 1015.34 1015.52 1015.69 1015.87 1016.11 1016.28 1016.42 1016.63 1016.87 1016.97 1016.97
1008.88 1009.31 1009.69 1010.02 1010.10 1010.38 1010.73 1011.00 1011.39 1011.79 1012.20 1012.57 1012.94 1013.26 1013.51 1013.85 1014.09 1014.36 1014.60 1014.85 1015.05 1015.19 1015.33 1015.48 1015.64 1015.77 1016.08 1016.43 1016.70 1016.78 1016.86 1016.79
1009.05 1009.42 1009.74 1010.11 1010.40 1010.63 1010.89 1011.19 1011.63 1012.13 1012.58 1012.95 1013.25 1013.49 1013.77 1013.98 1014.23 1014.52 1014.79 1014.98 1015.09 1015.23 1015.36 1015.44 1015.59 1015.82 1016.07 1016.35 1016.58 1016.69 1016.80 1016.93
1009.31 1009.40 1009.62 1009.84 1010.10 1010.46 1010.90 1011.29 1011.72 1012.16 1012.60 1013.06 1013.47 1013.76 1014.08 1014.35 1014.54 1014.70 1014.90 1015.10 1015.33 1015.48 1015.60 1015.84 1016.05 1016.31 1016.50 1016.58 1016.64 1016.75 1016.78 1016.66
1009.64 1009.65 1009.87 1009.99 1010.21 1010.59 1010.94 1011.26 1011.66 1012.10 1012.56 1013.02 1013.43 1013.76 1014.17 1014.57 1014.85 1015.06 1015.17 1015.28 1015.43 1015.65 1015.89 1016.09 1016.24 1016.40 1016.53 1016.59 1016.55 1016.71 1016.86 1016.96
1009.61 1009.66 1009.82 1009.99 1010.25 1010.58 1010.95 1011.45 1011.86 1012.18 1012.56 1012.87 1013.24 1013.67 1013.94 1014.19 1014.43 1014.70 1015.03 1015.42 1015.62 1015.82 1016.04 1016.13 1016.42 1016.52 1016.29 1016.40 1016.55 1016.66 1016.79 1016.73
1009.16 1009.51 1009.73 1009.95 1010.15 1010.59 1011.02 1011.36 1011.82 1012.25 1012.60 1012.99 1013.30 1013.61 1013.88 1014.14 1014.30 1014.50 1014.75 1014.87 1014.99 1015.12 1015.66 1015.77 1016.06 1016.49 1016.69 1016.48 1016.29 1016.28 1016.47 1016.46
1009.01 1009.27 1009.60 1009.91 1010.13 1010.48 1010.70 1011.07 1011.46 1011.75 1012.12 1012.65 1013.05 1013.50 1013.81 1014.10 1014.35 1014.51 1014.67 1014.79 1014.96 1015.20 1015.27 1015.85 1015.74 1015.83 1015.96 1016.34 1016.46 1016.11 1015.87 1016.06
1008.83 1008.90 1009.18 1009.66 1009.94 1010.14 1010.36 1010.73 1011.20 1011.61 1011.83 1012.21 1012.65 1013.03 1013.45 1013.76 1014.20 1014.39 1014.62 1014.83 1014.99 1015.15 1015.19 1015.23 1015.37 1015.67 1015.68 1015.81 1015.80 1015.99 1015.71 1015.62
1008.13 1008.28 1008.52 1008.98 1009.42 1009.92 1010.19 1010.44 1010.91 1011.20 1011.58 1012.10 1012.41 1012.67 1012.96 1013.42 1013.79 1014.07 1014.23 1014.41 1014.61 1014.73 1014.87 1015.13 1015.07 1015.01 1015.34 1015.34 1015.36 1015.29 1015.40 1015.50
1007.14 1007.37 1007.86 1008.39 1008.99 1009.44 1009.98 1010.30 1010.61 1011.01 1011.61 1012.00 1012.22 1012.53 1012.87 1013.06 1013.42 1013.83 1014.11 1014.18 1014.03 1014.31 1014.46 1014.55 1014.50 1014.76 1014.96 1015.08 1015.19 1014.86 1014.93 1015.00
1006.81 1007.13 1007.68 1008.04 1008.53 1008.92 1009.38 1009.84 1010.37 1010.83 1011.23 1011.63 1011.94 1012.17 1012.53 1012.99 1013.12 1013.35 1013.48 1013.56 1013.64 1013.94 1014.03 1014.46 1014.46 1014.53 1014.49 1014.67 1014.68 1014.39 1014.44 1014.63
1006.47 1006.85 1007.30 1007.67 1008.19 1008.61 1009.11 1009.69 1010.07 1010.54 1010.98 1011.19 1011.52 1011.88 1011.98 1012.17 1012.40 1012.73 1013.14 1013.06 1013.22 1013.57 1013.78 1013.94 1014.27 1014.21 1014.12 1014.47 1014.63 1014.20 1014.00 1014.23
1006.48 1006.72 1007.00 1007.37 1007.93 1008.53 1009.18 1009.78 1010.13 1010.37 1010.63 1010.69 1011.23 1011.37 1011.74 1012.12 1012.30 1012.41 1012.57 1012.62 1012.81 1013.26 1013.48 1013.41 1013.52 1013.79 1013.91 1014.13 1014.21 1013.78 1013.91 1013.83
1006.69 1006.75 1006.96 1007.39 1007.60 1008.18 1008.94 1009.49 1009.97 1010.28 1010.69 1010.96 1011.19 1011.19 1011.37 1011.61 1011.78 1012.14 1012.38 1012.50 1012.71 1012.81 1012.77 1012.80 1013.08 1013.19 1013.31 1013.73 1013.67 1013.45 1013.09 1012.77
1006.15 1006.14 1006.62 1007.02 1007.31 1007.53 1008.19 1009.02 1009.46 1010.07 1010.81 1010.95 1011.13 1011.24 1011.33 1011.35 1011.53 1011.70 1012.01 1012.15 1012.39 1012.54 1012.52 1012.60 1012.64 1012.79 1012.75 1012.79 1013.08 1013.50 1012.88 1012.30
1006.31 1006.14 1006.33 1006.76 1007.14 1007.62 1007.96 1008.81 1009.83 1010.50 1010.89 1011.32 1011.61 1011.59 1011.58 1011.42 1011.38 1011.44 1011.60 1011.86 1011.99 1012.17 1012.21 1012.18 1012.14 1012.34 1012.39 1012.39 1012.19 1012.31 1012.55 1012.01
1006.07 1006.30 1006.47 1006.83 1007.46 1008.06 1008.42 1008.96 1009.41 1010.14 1010.97 1011.13 1011.41 1011.65 1011.59 1011.30 1011.29 1011.37 1011.53 1011.70 1011.87 1011.89 1011.88 1011.68 1011.65 1011.69 1011.78 1011.69 1011.95 1011.52 1011.36 1011.10
Wind_Speed
12 11 15 16 16 15 17 17 17 16 17 16 16 15 14 13 11 10 9 9 9 10 10 10 9 8 9 9 8 7 6 5
10 9 11 17 17 17 18 18 18 17 16 16 15 15 14 14 11 10 10 9 9 9 10 11 10 8 8 8 8 7 5 5
12 9 8 14 15 16 16 17 17 16 16 16 15 15 14 14 14 13 12 11 11 11 11 11 11 10 9 8 7 7 7 7
10 10 7 8 11 14 13 13 13 13 13 12 12 12 12 12 11 11 10 10 10 11 11 12 11 10 9 8 7 7 6 7
7 9 10 9 9 8 8 13 13 13 13 12 11 10 10 9 9 9 8 7 8 8 8 8 7 5 5 6 6 7 6 7
4 5 6 8 6 6 6 9 12 15 13 12 11 11 7 3 3 5 5 8 7 7 6 5 5 5 4 5 7 7 8 2
9 7 6 6 7 6 6 5 5 5 5 5 6 6 5 5 5 5 6 6 5 6 5 3 4 6 5 2 2 6 3 4
7 7 8 6 7 8 5 4 3 3 3 2 3 4 4 3 3 3 2 3 4 6 3 3 2 2 4 3 3 3 4 4
8 7 6 7 8 9 5 6 6 6 6 5 7 5 4 3 4 3 3 4 3 3 4 3 2 2 4 5 5 5 4 4
8 9 10 10 10 9 9 7 7 6 6 7 8 8 5 5 4 2 2 2 2 2 3 3 3 3 4 5 5 6 6 7
10 12 12 13 12 10 10 9 7 5 6 5 7 8 10 4 4 4 4 4 4 4 4 5 5 5 6 4 7 6 6 6
9 9 12 12 11 12 11 8 6 6 5 6 7 8 9 7 5 4 4 4 5 5 5 4 4 3 4 3 7 4 4 6
5 9 7 10 12 12 11 8 6 6 5 4 4 5 6 6 7 6 5 6 4 3 4 5 5 5 5 5 5 3 5 5
9 8 9 9 11 10 7 6 6 6 4 4 4 3 6 7 8 6 6 5 4 5 5 5 5 5 5 5 5 4 5 7
7 6 6 7 9 8 6 4 3 3 4 3 3 3 3 4 4 5 4 6 4 5 5 5 6 4 5 4 5 5 3 5
6 8 9 9 9 10 6 6 3 3 3 2 2 4 3 3 4 5 5 5 5 7 8 8 5 8 6 4 1 3 4 6
10 10 8 8 10 10 5 3 3 4 3 3 3 5 4 4 3 3 3 4 5 5 6 7 8 5 4 6 3 1 3 2
8 10 10 9 8 5 8 7 4 4 4 3 2 2 1 2 3 3 2 2 3 3 5 6 6 8 7 4 7 5 1 7
11 4 6 7 7 5 6 6 5 5 4 2 3 2 2 2 3 4 3 2 1 2 5 6 5 7 6 8 3 7 5 2
Wind_Direction
147 146 156 155 151 150 143 140 141 142 141 142 142 142 144 146 145 145 150 154 158 159 162 162 162 166 168 166 167 172 177 188
145 148 154 160 158 156 154 151 151 151 150 149 151 152 154 152 154 157 161 163 166 167 172 175 176 184 189 185 184 187 193 216
145 147 156 167 161 160 161 158 157 157 158 159 161 165 166 168 169 172 174 175 179 180 184 187 190 194 199 200 202 201 211 224
143 143 151 161 168 165 164 161 159 160 164 166 168 171 175 177 180 182 186 189 191 193 194 198 201 204 209 217 223 224 230 247
151 161 165 167 168 164 163 167 166 168 171 172 175 177 182 186 190 191 195 201 207 211 215 224 228 238 251 261 269 273 271 264
175 172 171 168 165 162 160 176 176 178 178 180 182 185 174 169 195 213 212 217 222 227 240 246 243 251 268 281 286 288 290 294
199 191 182 172 165 153 170 169 159 174 175 175 177 178 176 175 179 184 210 249 259 273 261 250 276 267 240 234 270 300 300 281
192 189 185 168 163 169 169 149 154 150 160 165 176 177 188 182 193 197 185 202 186 207 205 188 200 228 263 256 238 223 253 260
177 185 170 169 169 179 152 179 185 181 188 200 205 186 171 182 188 197 199 201 215 199 188 240 250 236 220 251 269 261 234 245
188 185 185 178 185 184 177 178 179 184 193 199 206 205 188 189 198 193 228 244 256 223 237 210 216 226 223 234 237 245 257 261
199 203 186 192 190 185 193 183 180 180 185 176 206 214 211 183 180 193 199 209 212 202 203 227 230 219 241 227 249 235 255 264
206 197 192 188 182 186 194 178 169 174 175 195 205 208 212 206 189 203 218 221 224 213 219 225 225 233 250 245 253 230 239 256
195 187 175 183 185 185 186 175 163 170 170 170 183 183 190 198 195 203 215 227 227 194 203 227 225 234 240 236 255 224 236 242
214 169 175 177 186 185 160 153 154 169 176 188 182 188 203 197 200 210 223 226 196 208 215 218 237 218 248 241 244 239 244 255
206 183 165 167 160 154 134 129 129 158 188 162 185 198 220 217 224 215 230 228 193 208 223 219 224 202 231 248 256 273 253 243
191 173 175 169 164 153 158 157 158 170 108 85 150 154 155 194 198 209 227 242 229 233 242 226 226 229 230 182 122 253 244 229
193 188 180 185 173 177 152 103 126 130 110 135 110 100 87 92 114 164 215 236 220 234 232 221 206 231 244 176 178 193 271 341
204 193 184 186 177 159 124 115 84 66 74 101 105 110 56 127 128 107 71 296 278 240 254 256 230 222 237 202 211 164 203 228
222 168 158 141 131 120 125 118 127 141 147 158 127 148 200 111 95 90 91 82 353 280 268 269 235 228 220 238 202 240 260 171